Regional Weather Roundup
Issued by NWS Green Bay, WI

Home | Current Version | Previous Version | Graphics & Text | Print | Product List | Glossary Off
Versions: 1 2 3 4 5 6 7 8 9 10 11 12 13 14 15 16 17 18 19 20 21 22 23 24 25 26 27 28 29 30 31 32 33 34 35 36 37 38 39 40 41 42 43 44 45 46 47 48 49 50

000
ASUS43 KGRB 300411
RWRGRB

NORTH-CENTRAL AND NORTHEAST WISCONSIN REGIONAL WEATHER ROUNDUP
NATIONAL WEATHER SERVICE GREEN BAY WI
1100 PM CDT SUN MAY 29 2016

WIZ005-009-010>012-018-019-300500-
NORTH CENTRAL WISCONSIN

CITY           SKY/WX    TMP DP  RH WIND       PRES   REMARKS
IRONWOOD       CLEAR     54  54 100 CALM      29.91R
MANITOWISH WTR NOT AVBL
ARBOR VITAE    CLEAR     59  55  87 CALM      29.95R
EAGLE RIVER      N/A     53  53 100 CALM      29.94R
LAND O LAKES   CLEAR     53  53  99 CALM      29.94S
RHINELANDER    MOCLDY    55  53  93 W3        29.96R FOG
PHILLIPS       CLEAR     55  55 100 CALM      29.96R
ANTIGO         MOCLDY    58  55  88 CALM      29.96R
TOMAHAWK       CLEAR     53  52  95 CALM      29.96R
MERRILL        MOCLDY    57  57 100 CALM      29.96R
$$

WIZ013-073-300500-
NORTHEAST WISCONSIN

CITY           SKY/WX    TMP DP  RH WIND       PRES   REMARKS
IRON MOUNTAIN  CLEAR     60  56  86 W5        29.90R
MARINETTE      CLEAR     64  57  78 CALM      29.93R
OCONTO         CLEAR    N/A N/A N/A CALM      29.92R
$$

WIZ017-030-035>037-045-300500-
CENTRAL WISCONSIN

CITY           SKY/WX    TMP DP  RH WIND       PRES   REMARKS
MEDFORD        MOCLDY    62  57  83 W3        29.97R
WAUSAU         CLEAR     61  56  83 CALM      29.94R
MOSINEE        CLEAR     59  57  94 SW5       29.97S
MARSHFIELD     CLEAR     62  55  77 W5        29.97R
WISC RAPIDS    CLEAR     57  54  89 SW3       29.98R
STEVENS POINT  CLEAR     59  56  91 CALM      29.97S
WAUPACA        PTCLDY    63  60  90 CALM      29.96S
SHAWANO        PTCLDY    66  58  76 SW3       29.94S
CLINTONVILLE   CLEAR     63  54  72 W5        29.94S
WAUTOMA        CLEAR     60  56  86 CALM      29.98
$$

WIZ038-039-048-051-300500-
FOX VALLEY

CITY           SKY/WX    TMP DP  RH WIND       PRES   REMARKS
NWS GREEN BAY  CLEAR     67  58  72 SW6       29.94R
APPLETON       PTCLDY    63  54  72 VRB5      29.94S
OSHKOSH        PTCLDY    65  57  75 SW3       29.96R
FOND DU LAC    CLOUDY    66  59  78 SW5       29.97R
$$

WIZ022-050-052-300500-
EAST CENTRAL WISCONSIN

CITY           SKY/WX    TMP DP  RH WIND       PRES   REMARKS
EPHRAIM        FAIR      63  57  80 NW7       29.92R
STURGEON BAY   NOT AVBL
MANITOWOC      CLEAR     65  60  84 W6        29.95R
SHEBOYGAN      CLEAR     64  57  78 W6        29.95R
$$

LMZ563-521-522-541>543-300500-
LAKESHORE

STATION/POSITION TIME  TEMP    WIND        PRES    VSBY  WAVE
                       AIR SEA DIR/SP/G                  HT/PER
                 (UTC) (F)     (DEG/KT/KT) (MB)    (MI)  (FT/S)
SHEBOYGAN LKSHOR 0400   69     250/  6/  7 1014.3R
KEWAUNEE LKSHORE 0300   68                   N/A
NORTHPORT PIER   0300   64     280/  5/  9 1012.5R
N MID LAKE BUOY  0350   55 47  250/ 10/ 10 1012.1R         2/ 5
CHAMBERS ISLAND  0300   65     230/  1/  7 1012.9R
MENOMINEE LKSHOR 0300   70                   N/A
$$



USA.gov is the U.S. government's official web portal to all federal, state and local government web resources and services.